Погода в Костково

Россия / Новгородская область     58°07′15″N   33°02′31″E
темп.,
°C
ветер,
м/с
пор.,
м/с
влажн.,
%
обл.,
%
осадки,
мм/ч
давл.,
гПа
погр.,
м
4 марта, чт
чт400:00+1з61497100 1.7 10021008
03:00+1з71497100 4.4 10011057
06:00−2сз41091100 1.1 1001693
09:00−4зсз389387 1.1 1002564
12:00−2сз368088 0.0 1002759
15:00−1сз357491 0.1 10021014
18:00−4сз228777 0.3 100271
21:00−4сз279587 0.6 1004569
5 марта, пт
пт500:00−6ссз3888100 0.2 1005553
03:00−7сз269499 0.3 1006448
06:00−7зсз369599 0.1 1007504
09:00−7зсз3690100 0.3 1008580
12:00−5зсз3578100 0.1 1010826
15:00−5сз3575100 0.3 1011912
18:00−6сз3683100 0.2 1012548
21:00−8с249398 0.3 1015155
6 марта, сб
сб600:00−10ссв119215 0.0 101721
03:00−11зюз129015 0.0 101821
06:00−10зюз259387 0.1 1018239
09:00−8з379293 0.3 1018440
12:00−6з4679100 0.2 1017904
15:00−4зюз4773100 0.3 10141052
18:00−5юз51169100 0.0 10101156
21:00−5юз81692100 1.0 10051354
7 марта, вс
вс700:00−3зюз81694100 2.3 9991310
03:00−3зюз81694100 4.9 9941294
06:00−2з81496100 3.7 9921186
09:00−7з398187 4.7 992766
12:00−6з368652 0.3 992673
15:00−5з6116176 1.9 9922018
18:00−8зсз41073100 0.4 993886
21:00−10сз1296100 1.4 99560
8 марта, пн
пн800:00−12ссз3996100 0.3 998360
03:00−12зсз41096100 0.4 1001487
06:00−11сз41093100 0.2 1004737
09:00−12ссз5990100 0.3 1007693
12:00−11ссз4887100 0.1 1010724
15:00−11ссз5886100 0.3 1013755
18:00−12ссз4989100 0.1 1016727
21:00−16ссз3109599 0.1 1019437